STARLINK-4727, 53803

Orbit data source: Space-Track

STARLINK-4727, 53803 is a payload satellite owned by SpaceX/Seattle (US) in LEO that was launched on Sun, 11 Sep 2022 UTC via an FALCON 9 launch vehicle from the Air Force Eastern Test Range (AFETR). Payload-class satellites include a variety of spacecraft equipped with specific instruments for various scientific and technological missions. These include communications satellites like Starlink; space stations such as the ISS; scientific satellites like the Hubble; Earth observation satellites from companies like Planet Labs, Umbra, and HawkEye 360; GPS; miniature CubeSats for education and research; and military/defense satellites.

Loading next visibility...
Identifier
53803, 2022-111AG
Orbit
LEO
Country
Flag of USUS
Related business
Manufacturer
SpaceX/Seattle
Mission
Operational Commercial Communications
Bus & Motor
STARLINK, Unknown motor
Mass
305 kg wet, ~290 kg dry
Launch date (UTC)
2022-09-11 (3 years ago)
Launch vehicle
FALCON 9
Launch site
Air Force Eastern Test Range (AFETR)
Object type
Payload
Rocket body
Debris
Shape & HBR
Box + 1 Pan, 10.1 m
Radar Cross Section
13.562 m², Large (>1 m²)

Expand to show TLE details & history
Last TLE update: 8 hours ago

TLE from 8 hours ago
0 STARLINK-4727
1 53803U 22111AG  25307.81715404  .00000115  00000-0  25337-4 0  9994
2 53803  53.2156  94.2297 0001181  82.7429 277.3697 15.08839821175020
Epoch: 2025-11-03T19:36Z
TLE epoch observation values (Epoch: 2025-11-03T19:36:42.109Z)
Latitude
-0.00003°
Longitude
116.74113°
Altitude
540.537 km
Speed
7.593 km/s
True Right ascension
06h 16m 55s
True Declination
0° 00' 00"
Sunlit
Object was in full shadow at epoch
Visualization orbit readout
Latitude
Unknown
Longitude
Unknown
Altitude
Unknown
Speed
Unknown
Apparent Right ascension
Unknown
Apparent Declination
Unknown
Sunlit
N/A
Visualization observer readout
Local Sidereal Time
23:50:18
Azimuth
Unknown
Elevation
Unknown
Doppler factor
Unknown
Orbital elements
Apogee altitude
540.806 km
Perigee altitude
539.172 km
Semi-major axis
6,918.126 km
Eccentricity
0.00012
Inclination
53.2156°
RAAN
94.2297°
Arg. of periapsis
82.7429°
True anomaly
277.35628°
Mean anomaly
277.3697°
Eccentric anomaly
277.36299°
Mean motion
3.7719 °/min
Orbital period
95.44 mins
BSTAR
0.000025337
Loading maneuver chart data...
Computing Atmospheric mass density...
Loading historical data...
Loading historical data...
Loading historical data...
Loading historical data...
Loading historical data...
Loading historical data...
Loading historical data...

Documentation

Showing up to 5 results
|